GW3160 Weather Reports


Display with metric or nautical units.
time (UTC)temp
F
wind
direction
speed
MPH
gust
MPH
rain 1hr
in
rain 24hr
in
rain mn
in
humidity
%
barometer
mb
20260504050253 41 76 0.0 0.0 0.00 0.00 0.00 76 1013.3
20260504045750 41 76 0.0 0.0 0.00 0.00 0.00 81 1013.3
20260504045245 41 76 0.0 0.0 0.00 0.00 0.00 80 1013.4
20260504044743 40 76 0.0 0.0 0.00 0.00 0.00 80 1013.4
20260504044240 40 76 0.0 0.0 0.00 0.00 0.00 79 1013.5
20260504043737 40 76 0.0 0.0 0.00 0.00 0.00 78 1013.4
20260504043234 40 76 0.0 0.0 0.00 0.00 0.00 78 1013.4
20260504042732 39 76 0.0 0.0 0.00 0.00 0.00 78 1013.5
20260504042228 39 76 0.0 0.0 0.00 0.00 0.00 78 1013.3
20260504041724 39 76 0.0 0.0 0.00 0.00 0.00 79 1013.5
20260504041220 39 76 0.0 0.0 0.00 0.00 0.00 77 1013.5
20260504040716 39 76 0.0 1.0 0.00 0.00 0.00 76 1013.4
20260504040214 39 76 1.0 1.0 0.00 0.00 0.00 77 1013.5
20260504035710 39 76 0.0 0.0 0.00 0.00 0.00 76 1013.7
20260504035208 39 76 1.0 1.0 0.00 0.00 0.00 76 1013.6
20260504034705 39 76 1.0 1.0 0.00 0.00 0.00 75 1013.7
20260504034202 40 76 0.0 1.0 0.00 0.00 0.00 75 1013.3
20260504033659 40 76 1.0 1.0 0.00 0.00 0.00 75 1013.3
20260504033156 40 76 1.0 1.0 0.00 0.00 0.00 74 1013.4
20260504032653 40 76 0.0 1.0 0.00 0.00 0.00 75 1013.3
20260504032150 40 76 1.0 1.0 0.00 0.00 0.00 75 1013.5
20260504031647 40 76 1.0 1.0 0.00 0.00 0.00 76 1013.4
20260504031143 40 76 0.0 1.0 0.00 0.00 0.00 74 1013.3
20260504030640 40 76 1.0 1.0 0.00 0.00 0.00 75 1013.3
20260504030137 41 76 1.0 1.0 0.00 0.00 0.00 73 1013.2
20260504025634 41 76 1.0 1.0 0.00 0.00 0.00 73 1013.3
20260504025131 41 76 1.0 1.0 0.00 0.00 0.00 74 1013.1
20260504024628 41 76 1.0 1.0 0.00 0.00 0.00 74 1013.4
20260504024125 41 76 1.0 1.0 0.00 0.00 0.00 74 1013.5
20260504023621 41 76 1.0 1.0 0.00 0.00 0.00 74 1013.3
20260504023117 41 76 1.0 1.0 0.00 0.00 0.00 72 1013.4
20260504022614 41 76 1.0 1.0 0.00 0.00 0.00 72 1013.3
20260504022109 41 76 1.0 1.0 0.00 0.00 0.00 71 1013.3
20260504021608 42 76 0.0 1.0 0.00 0.00 0.00 72 1013.3
20260504021104 42 76 0.0 0.0 0.00 0.00 0.00 71 1013.4
20260504020601 42 76 0.0 1.0 0.00 0.00 0.00 70 1013.1
20260504020057 42 77 1.0 1.0 0.00 0.00 0.00 71 1013.2
20260504015554 42 76 1.0 1.0 0.00 0.00 0.00 71 1013.0
20260504015050 42 76 0.0 0.0 0.00 0.00 0.00 69 1013.1
20260504014546 42 76 1.0 1.0 0.00 0.00 0.00 69 1013.0
20260504014043 43 76 1.0 1.0 0.00 0.00 0.00 70 1012.9
20260504013541 43 77 1.0 1.0 0.00 0.00 0.00 68 1012.9
20260504013038 43 77 1.0 1.0 0.00 0.00 0.00 68 1012.9
20260504012536 43 77 1.0 1.0 0.00 0.00 0.00 66 1012.6
20260504012033 44 78 1.0 1.0 0.00 0.00 0.00 68 1012.7
20260504011529 44 81 1.0 1.0 0.00 0.00 0.00 67 1012.6
20260504011020 44 89 1.0 1.0 0.00 0.00 0.00 66 1012.7
20260504010515 44 94 0.0 1.0 0.00 0.00 0.00 66 1012.6
20260504010012 45 96 1.0 1.0 0.00 0.00 0.00 67 1012.3
20260504005509 45 91 1.0 1.0 0.00 0.00 0.00 66 1012.7
20260504005007 45 87 0.0 0.0 0.00 0.00 0.00 66 1012.3
20260504004504 46 82 1.0 1.0 0.00 0.00 0.00 64 1012.6
20260504004001 46 85 1.0 1.0 0.00 0.00 0.00 63 1012.5
20260504003456 47 86 0.0 0.0 0.00 0.00 0.00 61 1012.6
20260504002954 47 86 1.0 1.0 0.00 0.00 0.00 62 1012.2
20260504002451 47 90 1.0 1.0 0.00 0.00 0.00 59 1012.5
20260504001948 48 78 1.0 1.0 0.00 0.00 0.00 56 1012.5
20260504001445 48 80 1.0 1.0 0.00 0.00 0.00 54 1012.5
20260504000942 49 81 0.0 1.0 0.00 0.00 0.00 53 1012.5
20260504000439 50 81 1.0 1.0 0.00 0.00 0.00 52 1012.5
20260503235936 51 80 1.0 1.0 0.00 0.00 0.00 52 1012.2
20260503235434 51 81 1.0 1.0 0.00 0.00 0.00 51 1012.3
20260503234931 51 81 0.0 0.0 0.00 0.00 0.00 52 1012.1
20260503234429 52 81 0.0 0.0 0.00 0.00 0.00 55 1012.1
20260503233927 53 81 0.0 0.0 0.00 0.00 0.00 52 1012.2
20260503233423 53 80 0.0 0.0 0.00 0.00 0.00 46 1012.3
20260503232920 54 55 0.0 0.0 0.00 0.00 0.00 45 1012.2
20260503232417 55 120 0.0 0.0 0.00 0.00 0.00 48 1012.1
20260503231914 55 90 0.0 0.0 0.00 0.00 0.00 45 1012.2
20260503231412 56 88 0.0 0.0 0.00 0.00 0.00 45 1012.2
20260503230908 57 155 0.0 0.0 0.00 0.00 0.00 35 1012.2
20260503230404 57 208 1.0 1.0 0.00 0.00 0.00 36 1012.1
20260503225902 57 167 1.0 2.0 0.00 0.00 0.00 33 1012.1
20260503225358 57 120 0.0 0.0 0.00 0.00 0.00 35 1012.1
20260503224854 58 162 1.0 1.0 0.00 0.00 0.00 33 1012.0
20260503224351 58 184 1.0 1.0 0.00 0.00 0.00 33 1012.0
20260503223849 58 158 1.0 1.0 0.00 0.00 0.00 31 1012.0
20260503223347 59 83 1.0 2.0 0.00 0.00 0.00 32 1012.2
20260503222842 58 165 0.0 1.0 0.00 0.00 0.00 34 1011.9
20260503222341 58 138 1.0 1.0 0.00 0.00 0.00 34 1012.1
20260503221838 58 187 3.0 3.0 0.00 0.00 0.00 32 1012.0
20260503221337 58 251 4.0 4.0 0.00 0.00 0.00 32 1012.1
20260503220832 58 165 0.0 1.0 0.00 0.00 0.00 32 1012.1
20260503220330 59 354 1.0 1.0 0.00 0.00 0.00 32 1012.0
20260503215827 59 39 1.0 1.0 0.00 0.00 0.00 33 1012.1
20260503215324 58 276 3.0 3.0 0.00 0.00 0.00 31 1012.2
20260503214821 59 47 0.0 0.0 0.00 0.00 0.00 32 1012.2
20260503214319 59 45 1.0 1.0 0.00 0.00 0.00 31 1012.3
20260503213816 59 172 3.0 4.0 0.00 0.00 0.00 31 1012.2
20260503213313 59 107 2.0 2.0 0.00 0.00 0.00 34 1012.2
20260503212809 59 63 1.0 1.0 0.00 0.00 0.00 31 1012.2
20260503212307 59 185 2.0 2.0 0.00 0.00 0.00 31 1012.1
20260503211759 59 201 2.0 2.0 0.00 0.00 0.00 32 1011.9
20260503211256 59 242 2.0 3.0 0.00 0.00 0.00 32 1012.2
20260503210755 59 98 1.0 2.0 0.00 0.00 0.00 34 1012.2
20260503210253 59 150 1.0 2.0 0.00 0.00 0.00 31 1012.3
20260503205748 60 50 1.0 1.0 0.00 0.00 0.00 32 1012.2
20260503205245 59 327 1.0 1.0 0.00 0.00 0.00 30 1012.2
20260503204742 60 180 2.0 2.0 0.00 0.00 0.00 29 1012.3
20260503204239 60 260 5.0 7.0 0.00 0.00 0.00 30 1012.3
20260503203737 60 246 5.0 7.0 0.00 0.00 0.00 29 1012.2
20260503203234 59 122 0.0 1.0 0.00 0.00 0.00 32 1012.2
20260503202731 59 321 2.0 3.0 0.00 0.00 0.00 32 1012.6
20260503202229 60 91 1.0 1.0 0.00 0.00 0.00 34 1012.3
20260503201727 61 255 3.0 3.0 0.00 0.00 0.00 30 1012.2
20260503201224 61 44 1.0 2.0 0.00 0.00 0.00 30 1012.3
20260503200720 60 331 1.0 2.0 0.00 0.00 0.00 32 1012.6
20260503200217 60 220 2.0 2.0 0.00 0.00 0.00 32 1012.6
20260503195713 60 160 2.0 3.0 0.00 0.00 0.00 29 1012.5
20260503195210 59 187 3.0 3.0 0.00 0.00 0.00 32 1012.7
20260503194708 59 99 1.0 1.0 0.00 0.00 0.00 31 1013.0
20260503194203 61 296 2.0 2.0 0.00 0.00 0.00 29 1012.9
20260503193700 60 127 3.0 4.0 0.00 0.00 0.00 31 1012.9
20260503193156 60 148 1.0 2.0 0.00 0.00 0.00 31 1013.1
20260503192651 61 237 1.0 2.0 0.00 0.00 0.00 30 1013.1
20260503192147 61 255 3.0 3.0 0.00 0.00 0.00 29 1013.1
20260503191644 62 286 2.0 4.0 0.00 0.00 0.00 30 1013.1
20260503191141 60 247 1.0 2.0 0.00 0.00 0.00 31 1013.2
20260503190638 59 16 1.0 2.0 0.00 0.00 0.00 32 1013.2
20260503190135 60 69 1.0 2.0 0.00 0.00 0.00 30 1013.4
20260503185631 59 86 2.0 3.0 0.00 0.00 0.00 30 1013.4
20260503185126 59 268 2.0 3.0 0.00 0.00 0.00 29 1013.5
20260503184622 61 271 2.0 3.0 0.00 0.00 0.00 30 1013.6
20260503184118 61 311 2.0 2.0 0.00 0.00 0.00 29 1013.6
20260503183615 60 0 3.0 3.0 0.00 0.00 0.00 29 1013.3
20260503183112 59 187 3.0 4.0 0.00 0.00 0.00 30 1013.6
20260503182611 59 179 1.0 1.0 0.00 0.00 0.00 31 1013.6
20260503182109 60 246 2.0 2.0 0.00 0.00 0.00 32 1013.5
20260503181605 60 268 2.0 3.0 0.00 0.00 0.00 30 1013.7
20260503181102 59 305 2.0 3.0 0.00 0.00 0.00 28 1013.8
20260503180559 58 203 3.0 4.0 0.00 0.00 0.00 30 1013.8
20260503180056 61 297 4.0 4.0 0.00 0.00 0.00 28 1013.7
20260503175553 58 190 2.0 2.0 0.00 0.00 0.00 30 1013.9
20260503175050 59 172 1.0 1.0 0.00 0.00 0.00 32 1013.8
20260503174548 58 252 2.0 2.0 0.00 0.00 0.00 35 1013.8
20260503174044 56 45 2.0 2.0 0.00 0.00 0.00 32 1013.8
20260503173539 55 35 5.0 6.0 0.00 0.00 0.00 34 1014.0
20260503173036 55 244 2.0 2.0 0.00 0.00 0.00 34 1014.1
20260503172533 57 48 1.0 1.0 0.00 0.00 0.00 33 1014.1
20260503172030 55 163 1.0 1.0 0.00 0.00 0.00 37 1014.1
20260503171527 55 182 3.0 4.0 0.00 0.00 0.00 35 1014.2
20260503171024 56 223 1.0 2.0 0.00 0.00 0.00 36 1014.2
20260503170520 56 130 2.0 2.0 0.00 0.00 0.00 34 1014.3
20260503150907 48 189 3.0 3.0 0.00 0.00 0.00 46 1015.5
20260503150403 49 279 4.0 6.0 0.00 0.00 0.00 44 1015.3
20260503131251 45 170 1.0 2.0 0.00 0.00 0.00 56 1015.2
20260503130748 44 247 0.0 1.0 0.00 0.00 0.00 57 1015.2
20260503130245 44 236 3.0 3.0 0.00 0.00 0.00 59 1015.2
20260503120212 41 309 0.0 1.0 0.00 0.00 0.00 72 1015.2
20260503110638 34 102 0.0 1.0 0.00 0.00 0.00 88 1014.4
20260503110136 34 111 0.0 0.0 0.00 0.00 0.00 88 1014.2
20260503081446 39 166 0.0 0.0 0.00 0.00 0.00 73 1013.2
20260503080943 39 165 0.0 0.0 0.00 0.00 0.00 74 1013.1
20260503080439 39 166 2.0 2.0 0.00 0.00 0.00 73 1013.3
20260503072916 39 195 1.0 1.0 0.00 0.00 0.00 75 1013.0
20260503072413 39 140 0.0 0.0 0.00 0.00 0.00 75 1012.8
20260503071910 39 140 0.0 0.0 0.00 0.00 0.00 76 1012.8
20260503071408 39 122 0.0 0.0 0.00 0.00 0.00 76 1012.7
20260503070903 39 144 0.0 0.0 0.00 0.00 0.00 80 1012.6
20260503070401 38 144 0.0 0.0 0.00 0.00 0.00 77 1012.7